Weather History for KPUB - February, 2014

Change the Weather History Date:

Sunday, February 16, 2014

  Actual Average Record
Temperature  
Mean Temperature 48 °F 34 °F  
Max Temperature 69 °F 51 °F 73 °F (1970)
Min Temperature 26 °F 17 °F -18 °F (1895)
Degree Days  
Heating Degree Days 17 31  
Month to date heating degree days 644 522  
Since 1 July heating degree days 3929 3954  
Cooling Degree Days 0 0  
Month to date cooling degree days 0 0  
Year to date cooling degree days 0 0  
Moisture  
Dew Point 26 °F    
Average Humidity 57    
Maximum Humidity 100    
Minimum Humidity 14    
Precipitation  
Precipitation 0.00 in 0.01 in 0.26 in (1938)
Month to date precipitation 0.23 0.14  
Year to date precipitation 0.68 0.49  
Snow  
Snow 0.00 in 0.10 in 5.10 in (1988)
Month to date snowfall 5.0 2.3  
Since 1 July snowfall 18.7 20.3  
Snow Depth 0.00 in    
Sea Level Pressure  
Sea Level Pressure 29.86 in    
Wind  
Wind Speed 11 mph (West)    
Max Wind Speed 36 mph    
Max Gust Speed 43 mph    
Visibility 10 miles    
Events      
T = Trace of Precipitation, MM = Missing Value Source: NWS Daily Summary

Daily Weather History Graph

Daily Weather History Graph

Search for Another Location

Airport or City:

Trip Planner

Search our weather history database for the weather conditions in past years. The results will help you decide how hot, cold, wet, or windy it might be!

Date:

Astronomy

Feb. 16, 2014 Rise Set
Actual Time 6:47 AM MST 5:37 PM MST
Civil Twilight 6:20 AM MST 6:04 PM MST
Nautical Twilight 5:49 AM MST 6:35 PM MST
Astronomical Twilight 5:18 AM MST 7:06 PM MST
Moon 7:34 PM MST (2/16) 7:20 AM MST (2/16)
Length of Visible Light 11h 44m
Length of Day
10h 50m
Full, 97% of the Moon is Illuminated
Feb 16
Full
Feb 22
Last Quarter
Mar 1
New
Mar 8
First Quarter
Mar 16
Full

Hourly Weather History & Observations

Time (MST) Temp. Windchill Dew Point Humidity Pressure Visibility Wind Dir Wind Speed Gust Speed Precip Events Conditions
12:31 AM 30.0 °F - 27.0 °F 88% 30.07 in 10.0 mi Calm Calm - N/A   Mostly Cloudy
12:39 AM 30.0 °F - 28.0 °F 92% 30.07 in 10.0 mi Calm Calm - N/A   Scattered Clouds
12:53 AM 30.9 °F - 28.0 °F 89% 30.00 in 10.0 mi Calm Calm - N/A   Mostly Cloudy
1:05 AM 30.9 °F 26.2 °F 28.9 °F 92% 30.06 in 10.0 mi North 4.6 mph - N/A   Scattered Clouds
1:53 AM 28.9 °F - 27.0 °F 92% 29.98 in 10.0 mi Calm Calm - N/A   Clear
2:53 AM 30.0 °F - 28.0 °F 92% 29.98 in 10.0 mi Calm Calm - N/A   Clear
3:53 AM 28.9 °F - 28.0 °F 96% 29.98 in 10.0 mi Calm Calm - N/A   Clear
4:53 AM 28.0 °F 24.2 °F 27.0 °F 96% 29.97 in 10.0 mi North 3.5 mph - N/A   Clear
5:53 AM 28.0 °F 24.2 °F 27.0 °F 96% 29.95 in 10.0 mi West 3.5 mph - N/A   Clear
6:53 AM 28.0 °F - 27.0 °F 96% 29.95 in 8.0 mi Calm Calm - N/A   Clear
7:53 AM 28.9 °F 22.8 °F 28.0 °F 96% 29.96 in 7.0 mi WSW 5.8 mph - N/A   Clear
8:53 AM 34.0 °F - 32.0 °F 92% 29.94 in 8.0 mi Calm Calm - N/A   Clear
9:53 AM 37.9 °F 32.7 °F 33.1 °F 83% 29.91 in 10.0 mi WSW 6.9 mph - N/A   Clear
10:53 AM 43.0 °F 40.3 °F 34.0 °F 71% 29.86 in 10.0 mi SW 4.6 mph - N/A   Clear
11:53 AM 51.1 °F - 34.0 °F 52% 29.79 in 10.0 mi Calm Calm - N/A   Clear
12:38 PM 68.0 °F - 18.0 °F 15% 29.77 in 10.0 mi West 27.6 mph 40.3 mph N/A   Squalls
12:53 PM 69.1 °F - 18.0 °F 14% 29.68 in 10.0 mi West 25.3 mph 38.0 mph N/A   Clear
1:53 PM 66.9 °F - 19.9 °F 17% 29.67 in 10.0 mi West 26.5 mph 39.1 mph N/A   Clear
2:53 PM 68.0 °F - 21.9 °F 17% 29.65 in 10.0 mi West 34.5 mph 41.4 mph N/A   Clear
3:53 PM 66.9 °F - 23.0 °F 19% 29.68 in 10.0 mi West 27.6 mph - N/A   Clear
4:53 PM 64.0 °F - 21.9 °F 20% 29.69 in 10.0 mi WSW 20.7 mph 29.9 mph N/A   Clear
5:53 PM 59.0 °F - 23.0 °F 25% 29.73 in 10.0 mi WSW 10.4 mph - N/A   Clear
6:53 PM 52.0 °F - 24.1 °F 34% 29.78 in 10.0 mi WSW 10.4 mph - N/A   Clear
7:53 PM 50.0 °F - 26.1 °F 39% 29.82 in 10.0 mi West 10.4 mph - N/A   Partly Cloudy
8:53 PM 55.0 °F - 26.1 °F 33% 29.79 in 10.0 mi West 23.0 mph - N/A   Clear
9:53 PM 48.0 °F - 27.0 °F 44% 29.82 in 10.0 mi West 16.1 mph - N/A   Clear
10:53 PM 50.0 °F - 24.1 °F 36% 29.84 in 10.0 mi West 18.4 mph - N/A   Clear
11:53 PM 54.0 °F - 12.0 °F 19% 29.86 in 10.0 mi NW 19.6 mph - N/A   Clear